Location: *
(43.9900°N, 3.4811°E)
Time: 08:08:21
(UTC+00:00)

Abrixas rocket - Pass Details

Date: 25 August 2019
Orbit: 364 x 371 km, 48.4° (Epoch: 20 September)

Event Time Altitude Azimuth Distance (km) Brightness Sun altitude
Rises 21:03:14 0° 292° (WNW) 2,224 7.0 -23.8°
Reaches altitude 10° 21:05:19 10° 298° (WNW) 1,375 5.8 -24.1°
Enters shadow 21:07:03 28° 314° (NW) 731 4.1 -24.3°
